#timestamp,LO_Frequency,Hit,StdDev 
1513533615.2,286046994.3,N
1513533635.1,286046992.2,Y
1513533636.0,286046992.2,P
1513533655.8,286046996.3,P
1513533675.7,286046992.8,P
1513533695.5,286046992.1,Y
1513533715.3,286047000.9,P
1513533735.2,286046996.9,N
1513533755.9,286047000.6,N
1513533775.7,286047004.1,N
1513533795.5,286047003.6,N
1513533815.4,286047002.8,N
1513533835.2,286047003.4,N
1513533855.0,286047000.4,N
1513533855.9,286047000.4,N
1513533875.8,286046998.2,N
1513533895.6,286046999.0,N
1513533915.4,286046997.0,N
1513533935.3,286046993.7,N
1513533955.1,286046994.2,N
1513533956.0,286046994.2,N
1513533975.8,286046991.7,N
1513533995.7,286046994.5,N
1513534015.5,286046996.4,N
1513534035.3,286046990.8,N
1513534055.1,286046990.3,N
1513534075.9,286046990.6,N
1513534095.7,286046991.5,N
1513534115.5,286046990.2,N
1513534135.4,286046993.2,N
1513534155.2,286046991.0,N
1513534175.0,286046993.7,N
1513534175.9,286046993.7,N
1513534195.8,286046996.3,N
1513534215.6,286046995.8,N
1513534235.4,286046996.3,N
1513534255.3,286046995.7,N
1513534275.1,286046995.6,N
1513534276.0,286046995.6,N
1513534295.8,286046994.4,N
1513534315.6,286046992.7,N
1513534335.5,286046993.8,N
1513534355.3,286046997.5,N
1513534375.1,286046999.5,N
1513534395.9,286046997.1,N
1513534415.7,286046996.1,N
1513534435.5,286046991.8,Y
1513534455.4,286047000.5,P
1513534475.2,286047000.3,N
1513534495.0,286046998.8,N
1513534495.9,286046998.8,N
1513534515.8,286047001.2,N
1513534535.6,286046998.3,N
1513534555.4,286047000.6,N
1513534575.3,286047000.1,N
1513534595.1,286047001.7,N
1513534596.0,286047001.7,N
1513534615.8,286047001.5,N
1513534635.7,286047004.4,N
1513534655.5,286047004.7,N
1513534675.3,286047008.6,Y
1513534695.2,286047004.8,P
1513534715.9,286047006.3,N
1513534735.7,286047008.8,P
1513534755.6,286047007.3,N
1513534775.4,286047006.1,N
1513534795.2,286047008.3,Y
1513534815.1,286047006.8,P
1513534816.0,286047006.8,P
1513534835.8,286047009.0,P
1513534855.6,286047006.3,Y
1513534875.5,286046997.2,P
1513534895.3,286046995.2,N
1513534915.1,286046999.0,N
1513534935.9,286046996.1,N
1513534955.7,286046996.3,N
1513534975.5,286046997.9,N
1513534995.3,286046994.2,N
1513535015.2,286046992.2,N
1513535035.0,286046988.5,N
1513535035.9,286046988.5,N
1513535055.7,286046990.5,N
1513535075.6,286046990.3,N
1513535095.4,286046989.7,N
1513535115.2,286046992.6,N
1513535135.1,286046996.2,N
1513535136.0,286046996.2,N
1513535155.8,286046993.6,N
1513535175.6,286046994.1,N
1513535195.5,286046992.7,N
1513535215.3,286046988.9,N
1513535235.1,286046988.6,N
1513535255.9,286046985.4,Y
1513535275.7,286046991.1,P
1513535295.5,286046996.0,N
1513535315.4,286046990.5,P
1513535335.2,286046991.3,Y
1513535355.0,286046996.8,P
1513535355.9,286046996.8,N
1513535375.8,286046999.1,N
1513535395.6,286046999.1,N
1513535415.4,286047001.1,N
1513535435.3,286047000.0,N
1513535455.1,286046999.9,N
1513535456.0,286046999.9,N
1513535475.8,286047001.0,N
1513535495.7,286046999.9,N
1513535515.5,286047001.1,N
1513535535.3,286046998.7,N
1513535555.1,286046997.2,N
1513535575.9,286046997.3,N
1513535595.7,286046997.6,N
1513535615.5,286046996.9,N
1513535635.4,286047001.2,N
1513535655.2,286046998.3,N
1513535675.0,286047002.5,N
1513535675.9,286047002.5,N
1513535695.8,286046997.4,N
1513535715.6,286046992.6,Y
1513535735.4,286046994.6,P
1513535755.3,286046997.8,N
1513535775.1,286046995.8,N
1513535776.0,286046995.8,N
1513535795.8,286046996.0,N
1513535815.7,286046994.8,Y
1513535835.5,286046999.4,P
1513535855.3,286046999.9,N
1513535875.2,286047002.7,N
1513535895.9,286047003.4,N
1513535915.7,286047007.1,N
1513535935.6,286047008.2,N
1513535955.4,286047007.8,N
1513535975.2,286047004.5,N
1513535995.0,286047007.2,N
1513535996.0,286047007.2,N
1513536015.8,286047003.6,N
1513536035.6,286047005.8,N
1513536055.4,286047002.5,N
1513536075.3,286047001.8,N
1513536095.1,286047005.9,N
1513536115.8,286047005.3,N
1513536135.7,286047004.7,N
1513536155.5,286047001.9,N
1513536175.3,286047004.4,N
1513536195.2,286047007.2,N
1513536215.9,286047004.1,N
1513536235.7,286046998.1,N
1513536255.6,286047003.6,N
1513536275.4,286047001.3,N
1513536295.2,286047004.2,N
1513536315.0,286046999.8,N
1513536316.0,286046999.8,N
1513536335.8,286047000.6,N
1513536355.6,286047002.0,N
1513536375.4,286047001.6,N
1513536395.3,286047001.9,N
1513536415.1,286047003.2,N
1513536435.8,286047000.7,N
1513536455.7,286046998.4,N
1513536475.5,286046999.9,N
1513536495.3,286047000.2,N
1513536515.2,286047003.8,N
1513536535.9,286046999.8,N
1513536555.7,286046999.9,N
1513536575.6,286047003.8,N
1513536595.4,286047003.0,N
1513536615.2,286047004.2,N
1513536635.0,286047004.3,N
1513536636.0,286047004.3,N
1513536655.8,286047003.6,N
1513536675.6,286047001.4,N
1513536695.4,286047005.7,N
1513536715.3,286047004.3,N
1513536735.1,286047001.4,N
1513536755.8,286047007.5,Y
1513536775.7,286047006.2,P
1513536795.5,286047006.1,P
1513536815.3,286047012.1,P
1513536835.2,286047016.9,Y
1513536855.0,286047014.5,P
1513536855.9,286047014.5,P
1513536875.7,286047021.9,P
1513536895.6,286047021.5,Y
1513536915.4,286047009.5,P
1513536935.2,286047013.7,P
1513536955.1,286047015.5,P
1513536956.0,286047015.5,Y
1513536975.8,286047003.3,P
1513536995.6,286047003.3,N
1513537015.5,286047002.2,N
1513537035.3,286047002.1,N
1513537055.1,286047004.0,N
1513537075.9,286047004.9,N
1513537095.7,286047008.7,N
1513537115.5,286047007.3,N
1513537135.4,286047008.5,N
1513537155.2,286047008.0,N
1513537175.0,286047012.3,Y
1513537175.9,286047012.3,P
1513537195.8,286047008.8,N
